• In Deutschland
  • Länderverzeichnis
  • Für 7 Tage
  • Wassertemperatur
  • Satellitenkarten
  • Wetterkarte
  • Widgets
  • user-avatar
    Anmelden

    Stündliche Wetter Herford

    Heute, 21 Juli, Samstag

    Zeit Temperatur Niederschläge Wind Luftdruck Luftfeuchtigkeit
    00:00 +20°C° 0,3 mm 2 m/S 750 mmHg 70%
    01:00 +19°C° 0 mm 2 m/S 750 mmHg 71%
    02:00 +19°C° 0,3 mm 2 m/S 750 mmHg 73%
    03:00 +18°C° 0,3 mm 2 m/S 749 mmHg 76%
    04:00 +18°C° 0,3 mm 2 m/S 749 mmHg 79%
    05:00 +18°C° 0,4 mm 2 m/S 749 mmHg 78%
    06:00 +19°C° 0,4 mm 2 m/S 749 mmHg 77%
    07:00 +19°C° 0,4 mm 2 m/S 749 mmHg 76%
    08:00 +21°C° 0,2 mm 2 m/S 749 mmHg 71%
    09:00 +24°C° 0,2 mm 2 m/S 749 mmHg 66%
    10:00 +26°C° 0,2 mm 2 m/S 749 mmHg 60%
    11:00 +27°C° 0,3 mm 2 m/S 749 mmHg 57%
    12:00 +28°C° 0,3 mm 2 m/S 749 mmHg 53%
    13:00 +30°C° 0,3 mm 2 m/S 749 mmHg 49%
    14:00 +30°C° 0,2 mm 2 m/S 749 mmHg 48%
    15:00 +30°C° 0,2 mm 2 m/S 749 mmHg 48%
    16:00 +30°C° 0,2 mm 2 m/S 749 mmHg 48%
    17:00 +29°C° 0,2 mm 2 m/S 749 mmHg 53%
    18:00 +28°C° 0,2 mm 1 m/S 749 mmHg 58%
    19:00 +27°C° 0,2 mm 1 m/S 749 mmHg 62%
    20:00 +25°C° 0,5 mm 1 m/S 749 mmHg 68%
    21:00 +23°C° 0,5 mm 2 m/S 749 mmHg 74%
    22:00 +21°C° 0,5 mm 2 m/S 750 mmHg 79%
    23:00 +21°C° 0,5 mm 1 m/S 750 mmHg 82%

    Morgen, 22 Juli, Sonntag

    Zeit Temperatur Niederschläge Wind Luftdruck Luftfeuchtigkeit
    00:00 +20°C° 0,5 mm 1 m/S 750 mmHg 85%
    01:00 +20°C° 0,5 mm 1 m/S 750 mmHg 87%
    02:00 +19°C° 0,3 mm 1 m/S 750 mmHg 89%
    03:00 +19°C° 0,3 mm 1 m/S 750 mmHg 90%
    04:00 +18°C° 0,3 mm 1 m/S 750 mmHg 91%
    05:00 +18°C° 0,1 mm 2 m/S 750 mmHg 89%
    06:00 +19°C° 0,1 mm 2 m/S 750 mmHg 87%
    07:00 +19°C° 0,1 mm 2 m/S 750 mmHg 85%
    08:00 +21°C° 0,1 mm 2 m/S 751 mmHg 78%
    09:00 +22°C° 0,1 mm 3 m/S 751 mmHg 71%
    10:00 +25°C° 0,1 mm 3 m/S 751 mmHg 64%
    11:00 +26°C° 0,1 mm 3 m/S 751 mmHg 60%
    12:00 +27°C° 0,1 mm 4 m/S 751 mmHg 56%
    13:00 +28°C° 0,1 mm 4 m/S 751 mmHg 52%
    14:00 +28°C° 0,1 mm 4 m/S 751 mmHg 51%
    15:00 +28°C° 0,1 mm 4 m/S 751 mmHg 50%
    16:00 +28°C° 0,1 mm 4 m/S 751 mmHg 50%
    17:00 +27°C° 0 mm 3 m/S 751 mmHg 54%
    18:00 +26°C° 0 mm 3 m/S 751 mmHg 59%
    19:00 +25°C° 0 mm 2 m/S 751 mmHg 63%
    20:00 +23°C° 0 mm 2 m/S 751 mmHg 69%
    21:00 +20°C° 0 mm 2 m/S 752 mmHg 74%
    22:00 +20°C° 0 mm 1 m/S 752 mmHg 79%
    23:00 +19°C° 0 mm 1 m/S 752 mmHg 82%

    übermorgen, 23 Juli, Montag

    Zeit Temperatur Niederschläge Wind Luftdruck Luftfeuchtigkeit
    00:00 +19°C° 0 mm 1 m/S 752 mmHg 84%
    01:00 +16°C° 0 mm 0 m/S 752 mmHg 86%
    02:00 +16°C° 0 mm 0 m/S 752 mmHg 87%
    03:00 +15°C° 0 mm 0 m/S 752 mmHg 88%
    04:00 +15°C° 0 mm 0 m/S 753 mmHg 89%
    05:00 +18°C° 0 mm 1 m/S 753 mmHg 85%
    06:00 +19°C° 0 mm 1 m/S 753 mmHg 82%
    07:00 +20°C° 0 mm 1 m/S 753 mmHg 79%
    08:00 +22°C° 0 mm 1 m/S 753 mmHg 73%
    09:00 +23°C° 0 mm 2 m/S 753 mmHg 68%
    10:00 +24°C° 0 mm 2 m/S 753 mmHg 63%
    11:00 +25°C° 0 mm 2 m/S 753 mmHg 61%
    12:00 +26°C° 0 mm 2 m/S 753 mmHg 58%
    13:00 +27°C° 0 mm 3 m/S 753 mmHg 56%
    14:00 +27°C° 0 mm 3 m/S 753 mmHg 57%
    15:00 +27°C° 0 mm 3 m/S 753 mmHg 58%
    16:00 +27°C° 0 mm 3 m/S 753 mmHg 59%
    17:00 +26°C° 0 mm 2 m/S 753 mmHg 62%
    18:00 +26°C° 0 mm 2 m/S 753 mmHg 65%
    19:00 +26°C° 0 mm 2 m/S 753 mmHg 68%
    20:00 +24°C° 0 mm 1 m/S 753 mmHg 74%
    21:00 +22°C° 0 mm 1 m/S 754 mmHg 80%
    22:00 +21°C° 0 mm 1 m/S 754 mmHg 85%
    23:00 +20°C° 0 mm 1 m/S 754 mmHg 87%

    24 Juli, Dienstag

    Zeit Temperatur Niederschläge Wind Luftdruck Luftfeuchtigkeit
    00:00 +20°C° 0 mm 1 m/S 754 mmHg 89%
    01:00 +19°C° 0 mm 1 m/S 754 mmHg 91%
    02:00 +19°C° 0 mm 1 m/S 754 mmHg 91%
    03:00 +19°C° 0 mm 1 m/S 753 mmHg 92%
    04:00 +18°C° 0 mm 1 m/S 753 mmHg 92%
    05:00 +20°C° 0 mm 1 m/S 753 mmHg 88%
    06:00 +21°C° 0 mm 1 m/S 753 mmHg 84%
    07:00 +22°C° 0 mm 1 m/S 753 mmHg 80%
    08:00 +24°C° 0 mm 1 m/S 753 mmHg 73%
    09:00 +25°C° 0 mm 1 m/S 753 mmHg 66%
    10:00 +27°C° 0 mm 1 m/S 753 mmHg 59%
    11:00 +28°C° 0 mm 1 m/S 753 mmHg 55%
    12:00 +29°C° 0 mm 1 m/S 753 mmHg 51%
    13:00 +30°C° 0 mm 2 m/S 752 mmHg 47%
    14:00 +30°C° 0 mm 2 m/S 752 mmHg 46%
    15:00 +31°C° 0 mm 2 m/S 752 mmHg 45%
    16:00 +31°C° 0 mm 2 m/S 752 mmHg 44%
    17:00 +30°C° 0 mm 2 m/S 752 mmHg 49%
    18:00 +30°C° 0 mm 1 m/S 752 mmHg 53%
    19:00 +29°C° 0 mm 1 m/S 752 mmHg 57%
    20:00 +27°C° 0 mm 1 m/S 752 mmHg 61%
    21:00 +26°C° 0 mm 1 m/S 752 mmHg 64%
    22:00 +24°C° 0 mm 1 m/S 752 mmHg 68%
    23:00 +23°C° 0 mm 1 m/S 752 mmHg 71%

    25 Juli, Mittwoch

    Zeit Temperatur Niederschläge Wind Luftdruck Luftfeuchtigkeit
    00:00 +23°C° 0 mm 1 m/S 752 mmHg 73%
    01:00 +21°C° 0 mm 2 m/S 752 mmHg 75%
    02:00 +22°C° 0 mm 1 m/S 752 mmHg 77%
    03:00 +21°C° 0 mm 1 m/S 752 mmHg 79%
    04:00 +21°C° 0 mm 1 m/S 752 mmHg 80%
    05:00 +22°C° 0 mm 1 m/S 752 mmHg 77%
    06:00 +23°C° 0 mm 1 m/S 752 mmHg 74%
    07:00 +24°C° 0 mm 2 m/S 753 mmHg 71%
    08:00 +26°C° 0 mm 2 m/S 753 mmHg 64%
    09:00 +28°C° 0 mm 2 m/S 753 mmHg 57%
    10:00 +30°C° 0 mm 3 m/S 753 mmHg 50%
    11:00 +31°C° 0 mm 3 m/S 752 mmHg 48%
    12:00 +31°C° 0 mm 3 m/S 752 mmHg 45%
    13:00 +33°C° 0 mm 3 m/S 752 mmHg 43%
    14:00 +32°C° 0 mm 2 m/S 752 mmHg 42%
    15:00 +32°C° 0 mm 2 m/S 752 mmHg 42%
    16:00 +32°C° 0 mm 2 m/S 751 mmHg 42%
    17:00 +31°C° 0 mm 2 m/S 751 mmHg 46%
    18:00 +31°C° 0 mm 2 m/S 752 mmHg 51%
    19:00 +30°C° 0 mm 1 m/S 752 mmHg 55%
    20:00 +28°C° 0 mm 1 m/S 752 mmHg 58%
    21:00 +27°C° 0 mm 2 m/S 752 mmHg 61%
    22:00 +25°C° 0 mm 2 m/S 752 mmHg 64%
    23:00 +25°C° 0 mm 2 m/S 752 mmHg 66%

    26 Juli, Donnerstag

    Zeit Temperatur Niederschläge Wind Luftdruck Luftfeuchtigkeit
    00:00 +24°C° 0 mm 2 m/S 753 mmHg 69%
    01:00 +23°C° 0 mm 2 m/S 753 mmHg 71%
    02:00 +23°C° 0 mm 1 m/S 753 mmHg 73%
    03:00 +23°C° 0 mm 1 m/S 753 mmHg 76%
    04:00 +22°C° 0 mm 1 m/S 753 mmHg 78%
    05:00 +23°C° 0 mm 1 m/S 753 mmHg 76%
    06:00 +24°C° 0 mm 1 m/S 753 mmHg 74%
    07:00 +23°C° 0 mm 0 m/S 754 mmHg 71%
    08:00 +25°C° 0,1 mm 0 m/S 754 mmHg 66%
    09:00 +28°C° 0,1 mm 1 m/S 754 mmHg 61%
    10:00 +30°C° 0,1 mm 1 m/S 754 mmHg 56%
    11:00 +31°C° 0,3 mm 1 m/S 754 mmHg 53%
    12:00 +32°C° 0,3 mm 1 m/S 754 mmHg 49%
    13:00 +32°C° 0,3 mm 1 m/S 754 mmHg 46%
    14:00 +32°C° 0,1 mm 1 m/S 754 mmHg 47%
    15:00 +32°C° 0,1 mm 1 m/S 754 mmHg 48%
    16:00 +32°C° 0,1 mm 1 m/S 753 mmHg 49%
    17:00 +31°C° 0,2 mm 2 m/S 754 mmHg 53%
    18:00 +30°C° 0,2 mm 2 m/S 754 mmHg 58%
    19:00 +29°C° 0,2 mm 2 m/S 754 mmHg 62%
    20:00 +27°C° 0,1 mm 2 m/S 754 mmHg 68%
    21:00 +26°C° 0,1 mm 2 m/S 754 mmHg 74%
    22:00 +24°C° 0,1 mm 2 m/S 754 mmHg 80%
    23:00 +23°C° 0 mm 2 m/S 754 mmHg 81%
    Mehr zeigen